Wind_Speed
27 31 40 33 32 34 33 28 27 26 23 19 20 20 14 19 24 26 24 21 21 18 13 15 15 17 14 3 4 8 12 13 11 5 3 2 6 7 10 9 11 10 11 12
31 36 32 29 29 27 29 30 31 24 15 18 20 25 19 20 14 25 23 24 23 23 22 22 16 19 10 6 7 6 5 14 15 10 7 3 6 9 13 14 14 14 14 14
35 33 26 27 25 24 25 27 28 27 20 29 30 27 22 20 16 15 22 26 29 27 24 26 22 13 11 10 7 5 6 8 16 15 12 8 8 11 12 13 13 15 18 15
30 34 30 30 29 26 31 23 27 30 31 31 29 20 26 22 23 20 15 15 16 17 21 26 26 18 12 9 7 3 9 12 13 19 20 14 12 14 14 13 14 15 17 15
28 31 29 33 34 28 33 25 27 30 35 36 33 18 20 21 27 28 22 23 20 20 21 21 26 15 10 9 7 4 8 13 16 14 21 22 20 17 18 13 13 14 14 16
22 26 34 27 28 29 27 30 27 28 28 13 34 29 28 26 30 31 30 25 18 15 19 20 24 18 17 12 10 7 7 13 15 17 17 19 21 20 17 13 14 13 14 14
20 21 28 31 26 25 26 25 16 12 8 9 23 24 31 32 31 32 28 20 15 15 18 22 32 23 19 12 9 8 8 10 14 17 17 19 20 30 24 15 16 12 15 12
16 21 27 28 29 27 26 27 17 5 6 12 21 11 33 31 26 24 28 30 27 21 16 23 28 19 12 13 8 10 10 9 13 17 19 23 27 31 27 8 12 12 10 10
10 26 27 25 26 26 30 22 25 20 17 2 11 14 29 24 24 31 18 18 17 22 19 18 16 16 16 15 11 10 8 10 14 15 17 21 14 19 12 13 4 9 7 8
10 16 18 27 26 29 27 29 19 11 2 4 7 8 24 27 25 23 11 19 22 24 18 17 16 16 19 15 15 11 9 11 14 13 16 17 8 5 3 4 7 5 7 8
3 9 15 18 29 29 23 23 18 13 11 5 4 10 20 13 15 13 17 24 23 21 22 20 22 15 17 18 17 12 11 13 13 12 14 4 2 1 6 4 6 8 9 10
10 2 12 14 23 22 34 19 19 26 13 8 7 20 17 13 8 14 25 26 26 28 22 12 12 15 20 17 16 14 14 14 14 12 8 3 2 1 6 6 7 9 9 10
9 9 10 12 7 16 19 32 27 13 21 16 7 25 19 18 17 6 8 18 20 19 16 15 15 16 14 14 15 15 15 14 14 13 7 5 4 3 5 7 7 9 10 9
9 3 10 12 18 22 23 16 24 20 23 11 19 24 21 22 24 22 21 21 16 10 12 13 18 25 13 21 19 16 16 16 15 11 7 5 3 5 6 6 8 8 9 10
7 14 15 14 15 17 24 20 26 27 21 8 9 20 16 13 25 25 24 26 27 31 26 31 29 23 15 21 19 16 17 17 16 13 8 7 5 6 8 9 9 9 9 10
9 11 23 22 17 8 14 4 15 13 12 15 16 19 20 11 21 25 24 23 23 25 29 29 29 19 19 19 17 18 18 18 18 13 11 12 12 12 12 14 14 13 12 12
16 12 14 28 25 18 2 16 11 7 2 7 18 14 14 16 24 29 29 25 20 19 25 29 26 19 19 20 18 17 17 16 15 15 15 16 17 17 19 20 22 20 18 16
22 16 16 25 28 0 1 4 6 9 4 3 10 7 17 18 28 34 35 33 31 13 21 23 24 23 20 19 16 11 10 11 11 12 14 18 20 21 22 24 23 23 22 19
19 22 15 10 4 4 6 4 5 7 7 2 6 5 13 21 23 24 26 31 23 18 23 23 25 24 18 8 7 4 4 5 6 8 11 15 19 21 22 24 25 25 25 32
11 14 15 9 5 6 6 2 2 2 1 6 4 9 13 14 20 20 19 31 36 17 26 14 2 10 17 8 8 7 5 6 7 7 10 13 15 17 20 22 24 24 28 26
4 2 6 7 3 6 8 3 2 4 1 7 6 14 17 20 18 20 22 26 21 7 6 4 14 11 15 19 16 13 12 10 11 11 15 16 19 22 25 27 28 31 31 34
9 4 4 1 3 6 7 5 5 5 7 7 7 12 17 23 19 19 21 20 15 8 3 9 6 13 15 18 16 16 16 14 14 16 19 23 25 28 31 33 33 34 33 41
3 5 3 3 5 8 9 9 10 8 9 10 12 8 8 13 14 10 14 7 10 11 2 6 12 11 13 15 15 17 17 17 18 20 23 27 32 34 36 37 33 32 34 42
8 6 11 11 7 9 11 10 11 11 12 13 12 12 6 3 5 10 10 9 7 16 19 14 11 11 13 14 18 20 19 21 21 23 27 32 35 37 38 38 35 30 29 29
10 12 13 16 11 10 7 4 2 7 13 5 11 15 12 9 9 9 10 13 12 13 16 18 15 13 13 14 16 18 20 22 24 27 29 31 31 33 34 34 32 29 28 24
8 9 10 10 2 8 1 3 4 13 18 10 12 5 11 6 10 10 11 12 14 17 17 17 17 17 16 16 16 18 19 21 23 25 26 27 26 25 23 24 25 28 32 27
Wind_Direction
235 229 223 225 232 242 256 259 259 256 257 277 294 310 298 307 238 234 245 257 254 261 270 252 261 265 272 139 175 203 231 233 242 229 229 272 262 267 240 234 239 247 258 261
224 232 230 233 235 239 251 259 260 266 249 286 296 301 303 297 279 255 257 259 261 265 264 242 247 259 247 170 153 165 229 252 250 252 251 266 290 283 276 272 258 255 259 262
233 230 225 228 234 242 250 256 265 271 281 295 299 300 294 274 283 277 265 262 261 259 269 250 230 240 233 174 164 177 239 283 262 258 260 275 286 299 300 284 262 252 255 259
243 238 240 242 243 247 262 252 271 285 291 288 297 286 291 283 268 270 281 286 290 276 267 244 232 235 235 168 173 193 244 273 279 254 263 272 283 297 304 294 274 267 263 256
250 238 237 246 242 245 254 264 278 288 292 293 281 266 267 280 280 270 266 282 280 277 255 242 212 222 215 199 194 223 263 274 283 282 263 269 270 284 294 292 278 276 265 253
254 244 246 253 257 255 261 275 281 291 292 288 284 263 271 278 279 272 267 268 262 271 243 231 201 218 222 204 209 221 252 268 277 280 282 281 277 274 279 288 283 279 273 262
250 254 247 248 253 256 260 270 289 302 289 243 270 254 271 282 287 281 281 280 271 262 234 208 200 217 221 215 215 226 237 258 276 285 276 284 278 271 267 244 266 276 281 281
265 261 241 240 246 256 268 264 237 242 268 283 278 244 268 284 289 281 277 270 272 249 225 211 203 223 224 215 219 222 242 262 275 274 282 296 310 302 277 198 252 271 280 291
283 273 274 260 258 261 260 243 263 267 274 226 260 261 278 295 291 295 274 240 209 226 207 211 213 225 228 230 223 223 235 257 273 278 298 299 292 360 55 168 251 279 300 302
278 300 283 268 259 266 270 272 255 244 274 251 247 261 286 301 299 296 247 201 189 195 205 209 210 233 232 213 215 210 222 250 265 276 285 291 247 289 27 56 293 326 313 319
345 270 308 277 265 267 276 254 249 261 276 197 236 277 289 299 294 248 175 175 188 195 207 210 218 221 202 198 197 191 217 242 249 265 273 254 188 269 306 322 334 325 319 320
339 15 323 299 276 258 254 260 259 252 245 243 269 263 254 292 331 233 189 197 202 201 208 213 207 198 184 188 195 201 221 229 239 245 223 211 175 316 320 322 336 326 322 326
345 5 341 330 342 14 265 252 262 256 276 262 239 267 260 251 268 276 226 189 187 195 201 208 208 213 206 199 206 210 216 227 233 225 202 208 219 259 281 304 311 315 316 318
304 317 353 304 296 312 302 279 244 224 239 248 255 273 263 243 239 229 233 235 238 240 254 273 241 205 247 215 231 220 215 216 222 222 216 218 232 263 270 282 292 308 311 316
335 323 320 331 306 302 304 275 230 231 207 201 281 313 315 258 218 212 206 207 227 233 222 236 248 222 228 201 223 216 216 220 226 225 231 244 259 270 267 268 277 285 291 299
329 325 333 323 325 316 45 91 181 201 207 245 312 294 297 253 215 217 221 215 207 217 222 229 232 199 182 198 199 209 219 220 223 230 243 250 253 256 261 267 275 275 276 281
303 303 6 310 305 315 244 53 63 119 99 247 302 265 257 208 207 216 217 226 233 230 228 221 201 209 212 195 197 207 215 226 225 235 243 254 261 269 271 271 275 274 275 270
283 264 252 270 304 192 24 72 89 81 77 170 317 277 214 224 213 218 221 226 214 229 241 226 208 209 194 188 184 195 217 233 238 252 265 272 274 274 273 274 274 274 273 295
261 259 242 222 169 263 175 355 96 89 112 126 313 288 258 235 229 229 228 218 224 269 255 245 223 193 178 184 152 203 227 265 274 277 270 268 270 275 275 276 276 273 270 271
252 243 224 214 169 192 200 201 186 244 107 212 227 246 254 250 261 263 256 254 298 314 283 251 89 235 204 242 212 244 245 257 268 270 262 265 273 274 277 276 275 272 275 275
80 68 146 171 181 184 190 180 186 222 146 327 272 256 252 252 268 266 277 267 266 276 243 282 193 161 190 224 231 233 236 249 262 275 277 276 277 278 276 276 276 275 277 283
33 49 38 29 179 224 228 278 273 257 277 270 248 241 249 255 254 249 271 266 235 202 201 118 218 194 204 218 226 235 239 245 259 267 272 275 276 278 277 274 274 275 281 283
42 30 330 291 247 265 288 295 285 265 225 241 249 243 247 248 218 224 185 181 208 240 194 267 239 228 226 232 239 243 248 248 252 264 269 273 274 274 275 275 276 279 282 287
334 355 340 313 254 272 277 279 296 288 272 252 264 192 156 158 171 220 215 247 248 202 216 248 243 241 237 231 235 243 249 255 262 265 271 273 275 277 278 278 275 269 275 291
324 326 318 306 310 305 322 315 97 299 295 238 189 158 142 166 199 206 234 244 254 255 257 254 257 261 267 264 264 265 267 272 278 285 284 286 288 289 288 283 279 262 265 272
322 319 319 327 340 98 116 271 337 62 54 73 214 230 68 135 212 238 250 254 255 257 267 277 279 286 288 284 281 278 283 287 288 292 294 294 296 300 300 294 273 253 252 258
Height
3133 3130 3126 3136 3137 3140 3141 3141 3140 3140 3143 3146 3145 3144 3142 3142 3140 3143 3144 3146 3148 3149 3150 3152 3154 3155 3156 3155 3155 3156 3158 3159 3159 3160 3160 3159 3158 3158 3158 3159 3159 3159 3158 3158
3125 3118 3129 3133 3136 3137 3138 3138 3135 3135 3139 3142 3140 3139 3138 3137 3135 3137 3138 3141 3143 3145 3145 3148 3150 3151 3154 3153 3153 3154 3156 3157 3157 3158 3158 3157 3157 3157 3156 3156 3157 3157 3157 3156
3115 3120 3127 3128 3131 3133 3133 3133 3133 3133 3135 3136 3136 3133 3134 3135 3134 3134 3135 3137 3139 3140 3141 3142 3145 3147 3150 3151 3151 3152 3153 3155 3155 3155 3154 3155 3156 3157 3156 3154 3154 3154 3154 3153
3112 3117 3122 3125 3125 3129 3129 3131 3132 3131 3133 3131 3131 3127 3128 3129 3129 3129 3130 3130 3131 3133 3134 3136 3142 3144 3145 3148 3149 3150 3151 3153 3153 3154 3153 3155 3156 3157 3155 3152 3151 3150 3150 3150
3108 3113 3115 3119 3120 3125 3123 3127 3129 3128 3126 3125 3124 3126 3121 3124 3122 3123 3124 3123 3125 3127 3127 3130 3134 3139 3142 3145 3145 3147 3149 3150 3151 3151 3152 3153 3153 3153 3153 3151 3148 3147 3146 3146
3106 3109 3112 3113 3117 3121 3122 3123 3125 3124 3122 3119 3116 3118 3112 3118 3119 3116 3117 3119 3120 3121 3122 3124 3130 3133 3136 3139 3141 3144 3147 3149 3150 3150 3151 3151 3149 3148 3147 3147 3146 3144 3143 3143
3103 3104 3106 3111 3113 3117 3119 3120 3121 3123 3122 3119 3115 3111 3104 3109 3113 3112 3111 3111 3113 3115 3117 3119 3123 3129 3132 3136 3138 3141 3144 3146 3148 3148 3147 3145 3143 3140 3140 3138 3141 3141 3141 3139
3102 3102 3104 3106 3109 3112 3115 3119 3120 3123 3123 3115 3112 3103 3099 3107 3105 3104 3104 3104 3107 3112 3114 3116 3122 3126 3129 3132 3135 3138 3141 3144 3145 3144 3144 3143 3141 3135 3121 3131 3135 3138 3137 3135
3098 3097 3099 3102 3105 3109 3110 3111 3115 3114 3112 3112 3107 3102 3099 3102 3099 3097 3093 3095 3100 3108 3111 3114 3118 3122 3125 3128 3132 3136 3138 3141 3142 3143 3140 3141 3141 3133 3123 3133 3132 3135 3133 3133
3097 3094 3096 3098 3099 3101 3103 3108 3108 3109 3110 3111 3103 3100 3096 3095 3093 3090 3087 3091 3097 3104 3108 3111 3114 3117 3121 3126 3130 3133 3135 3138 3140 3140 3139 3137 3136 3134 3135 3134 3135 3132 3132 3131
3092 3091 3095 3092 3094 3094 3098 3099 3102 3103 3104 3104 3105 3097 3095 3092 3090 3090 3089 3093 3098 3102 3105 3109 3112 3116 3120 3123 3127 3129 3132 3135 3136 3135 3135 3135 3135 3135 3136 3134 3133 3132 3132 3130
3092 3091 3091 3087 3087 3089 3092 3091 3095 3101 3099 3098 3097 3093 3094 3091 3091 3091 3091 3093 3096 3100 3104 3108 3111 3114 3117 3120 3123 3126 3130 3132 3133 3135 3134 3133 3133 3133 3133 3132 3131 3131 3132 3130
3093 3092 3090 3084 3083 3083 3084 3084 3089 3090 3096 3091 3095 3089 3092 3090 3091 3093 3094 3096 3098 3100 3103 3104 3106 3111 3116 3119 3121 3123 3125 3128 3130 3132 3131 3130 3130 3131 3131 3131 3129 3130 3130 3128
3092 3092 3093 3094 3089 3084 3081 3080 3082 3083 3085 3085 3088 3086 3087 3088 3089 3090 3093 3095 3101 3102 3104 3104 3105 3106 3111 3121 3118 3119 3120 3124 3127 3128 3127 3127 3127 3128 3129 3129 3129 3128 3127 3126
3093 3090 3090 3086 3084 3083 3075 3071 3073 3075 3081 3082 3083 3081 3082 3084 3088 3091 3089 3090 3092 3095 3097 3098 3098 3100 3101 3109 3115 3114 3116 3119 3123 3124 3124 3124 3125 3126 3126 3126 3125 3124 3123 3122
3089 3087 3085 3082 3081 3081 3076 3067 3070 3071 3073 3078 3080 3079 3078 3080 3084 3089 3088 3088 3088 3092 3094 3095 3096 3097 3103 3105 3108 3110 3113 3115 3119 3120 3121 3121 3122 3122 3122 3122 3121 3120 3119 3118
3088 3086 3083 3083 3080 3075 3075 3071 3071 3072 3073 3073 3078 3078 3076 3077 3080 3083 3084 3085 3089 3095 3096 3089 3094 3099 3099 3097 3102 3109 3108 3113 3114 3115 3116 3117 3117 3119 3119 3118 3117 3117 3115 3114
3082 3085 3086 3086 3081 3078 3075 3074 3075 3073 3073 3074 3079 3077 3077 3075 3077 3075 3075 3080 3084 3089 3090 3090 3085 3088 3094 3098 3098 3104 3107 3109 3111 3113 3114 3114 3114 3115 3115 3113 3113 3113 3113 3113
3076 3077 3078 3079 3080 3082 3077 3075 3074 3073 3074 3075 3079 3078 3076 3075 3077 3079 3078 3076 3080 3083 3088 3083 3079 3079 3087 3090 3094 3099 3102 3104 3106 3107 3109 3110 3109 3108 3108 3107 3107 3106 3107 3106
3069 3070 3075 3075 3076 3077 3077 3074 3073 3073 3073 3071 3075 3081 3079 3079 3079 3078 3076 3073 3072 3076 3079 3082 3066 3079 3085 3094 3097 3099 3100 3102 3102 3101 3105 3105 3103 3102 3100 3099 3098 3098 3098 3098
3068 3068 3070 3070 3070 3072 3073 3074 3074 3075 3078 3073 3074 3075 3075 3074 3075 3073 3073 3073 3073 3081 3081 3066 3077 3085 3089 3093 3097 3096 3098 3098 3096 3094 3097 3098 3095 3093 3093 3091 3090 3088 3088 3086
3069 3068 3068 3069 3069 3071 3071 3071 3074 3073 3070 3070 3070 3070 3070 3069 3068 3070 3068 3067 3072 3079 3078 3075 3084 3087 3088 3090 3093 3094 3094 3092 3090 3089 3090 3088 3087 3085 3084 3082 3081 3080 3078 3073
3072 3072 3070 3071 3069 3067 3067 3068 3067 3066 3065 3065 3066 3065 3063 3062 3063 3068 3070 3072 3075 3077 3075 3080 3084 3085 3086 3087 3087 3089 3088 3088 3086 3083 3081 3080 3078 3077 3074 3072 3071 3071 3069 3065
3070 3069 3067 3067 3066 3066 3064 3063 3062 3063 3065 3063 3062 3061 3060 3061 3061 3062 3065 3068 3072 3074 3077 3079 3080 3083 3085 3084 3086 3086 3083 3081 3077 3076 3073 3071 3068 3066 3065 3063 3063 3062 3062 3059
3070 3066 3064 3062 3061 3059 3058 3059 3060 3061 3061 3056 3060 3061 3062 3065 3066 3063 3063 3065 3065 3068 3071 3074 3075 3075 3076 3077 3077 3075 3073 3070 3067 3063 3061 3058 3057 3057 3056 3055 3053 3053 3054 3053
3068 3066 3063 3060 3058 3057 3057 3058 3058 3056 3057 3053 3057 3054 3054 3063 3065 3063 3064 3063 3064 3065 3066 3066 3067 3067 3067 3068 3067 3068 3063 3061 3059 3054 3050 3051 3051 3050 3048 3046 3044 3044 3046 3046